Sheridan, WY

7:15 AM MDT on April 27, 2017 (GMT -0600)
Sheridan County

Weather History for KSHR - April, 2013

Change the Weather History Date:

Wednesday, April 10, 2013

  Actual Average Record
Temperature  
Mean Temperature 24 °F 42 °F  
Max Temperature 36 °F 56 °F 78 °F (1971)
Min Temperature 11 °F 28 °F 11 °F (1933)
Degree Days  
Heating Degree Days 41 23  
Month to date heating degree days 259 240  
Since 1 July heating degree days 6538 6699  
Cooling Degree Days 0 0  
Month to date cooling degree days 0 0  
Year to date cooling degree days 0 0  
Moisture  
Dew Point 16 °F    
Average Humidity 66    
Maximum Humidity 84    
Minimum Humidity 47    
Precipitation  
Precipitation 0.00 in 0.05 in 0.78 in (1943)
Month to date precipitation 0.67 0.41  
Year to date precipitation 2.69 2.49  
Sea Level Pressure  
Sea Level Pressure 30.19 in    
Wind  
Wind Speed 5 mph (SSE)    
Max Wind Speed 16 mph    
Max Gust Speed 18 mph    
Visibility 10 miles    
Events      
T = Trace of Precipitation, MM = Missing Value Source: NWS Daily Summary

Daily Weather History Graph

Daily Weather History Graph

Search for Another Location

Airport or City:

Trip Planner

Search our weather history database for the weather conditions in past years. The results will help you decide how hot, cold, wet, or windy it might be!

Date:

Astronomy

Apr. 10, 2013 Rise Set
Actual Time 6:31 AM MDT 7:47 PM MDT
Civil Twilight 6:01 AM MDT 8:17 PM MDT
Nautical Twilight 5:25 AM MDT 8:53 PM MDT
Astronomical Twilight 4:47 AM MDT 9:32 PM MDT
Moon 6:28 AM MDT (4/10) 8:28 PM MDT (4/10)
Length of Visible Light 14h 15m
Length of Day
13h 15m
New Moon, 0% of the Moon is Illuminated
Apr 10
New Moon
Apr 18
First Quarter
Apr 25
Full
May 2
Last Quarter
May 9
New

Hourly Weather History & Observations

Time (MDT) Temp. Windchill Dew Point Humidity Pressure Visibility Wind Dir Wind Speed Gust Speed Precip Events Conditions
12:53 AM 17.1 °F 11.7 °F 12.0 °F 81% 30.43 in 10.0 mi NW 3.5 mph - N/A   Overcast
1:53 AM 17.1 °F - 12.0 °F 81% 30.41 in 10.0 mi Calm Calm - N/A   Overcast
2:53 AM 17.1 °F 11.7 °F 12.0 °F 81% 30.38 in 10.0 mi WSW 3.5 mph - N/A   Overcast
3:53 AM 17.1 °F - 12.0 °F 81% 30.37 in 10.0 mi Calm Calm - N/A   Overcast
4:53 AM 18.0 °F - 10.9 °F 74% 30.37 in 10.0 mi Calm Calm - N/A   Overcast
5:53 AM 16.0 °F - 10.9 °F 81% 30.37 in 10.0 mi Calm Calm - N/A   Overcast
6:53 AM 14.0 °F - 9.0 °F 80% 30.37 in 10.0 mi Calm Calm - N/A   Clear
7:53 AM 17.1 °F - 10.0 °F 74% 30.36 in 10.0 mi Calm Calm - N/A   Clear
8:53 AM 18.0 °F 12.7 °F 10.9 °F 74% 30.36 in 10.0 mi SSE 3.5 mph - N/A   Clear
9:53 AM 21.9 °F - 12.0 °F 66% 30.33 in 10.0 mi Calm Calm - N/A   Clear
10:53 AM 24.8 °F 20.5 °F 14.0 °F 64% 30.15 in 10.0 mi South 3.5 mph - N/A   Clear
11:53 AM 27.0 °F 16.1 °F 17.1 °F 66% 30.28 in 10.0 mi SSE 12.7 mph - N/A   Clear
12:53 PM 28.4 °F 19.1 °F 17.6 °F 64% 30.09 in 10.0 mi SE 10.4 mph - N/A   Clear
1:53 PM 30.9 °F 22.8 °F 18.0 °F 59% 30.19 in 10.0 mi ESE 9.2 mph - N/A   Clear
2:53 PM 33.1 °F 26.9 °F 19.9 °F 59% 30.15 in 10.0 mi SE 6.9 mph - N/A   Clear
3:53 PM 34.0 °F 28.0 °F 19.9 °F 56% 30.11 in 10.0 mi SSE 6.9 mph - N/A   Clear
4:53 PM 36.0 °F 29.6 °F 19.0 °F 50% 30.07 in 10.0 mi SSE 8.1 mph - N/A   Clear
5:53 PM 36.0 °F 30.3 °F 18.0 °F 48% 30.05 in 10.0 mi ESE 6.9 mph - N/A   Clear
6:53 PM 33.1 °F 26.1 °F 21.0 °F 61% 30.05 in 10.0 mi SE 8.1 mph - N/A   Mostly Cloudy
7:53 PM 32.0 °F 24.8 °F 23.0 °F 69% 30.01 in 10.0 mi SE 8.1 mph - N/A   Overcast
8:53 PM 30.9 °F 23.5 °F 23.0 °F 72% 29.99 in 10.0 mi SE 8.1 mph - N/A   Overcast
9:53 PM 30.0 °F 24.1 °F 23.0 °F 75% 29.96 in 10.0 mi SE 5.8 mph - N/A   Scattered Clouds
10:53 PM 28.0 °F 22.8 °F 23.0 °F 81% 29.95 in 10.0 mi South 4.6 mph - N/A   Clear
11:53 PM 27.0 °F 23.0 °F 23.0 °F 85% 29.92 in 10.0 mi NW 3.5 mph - N/A   Partly Cloudy